Location: Cambroso
(45.2833°N, 12.0850°E)
Time: 16:50:35
(UTC+00:00)

Cosmos 1812 Rocket - Pass Details

Date: 21 January 2021
Orbit: 604 x 633 km, 82.5° (Epoch: 25 February)

Event Time Altitude Azimuth Distance (km) Brightness Sun altitude
Rises 17:23:18 0° 0° (N) 2,911 6.9 -13.9°
Reaches altitude 10° 17:25:48 10° 12° (NNE) 1,994 5.9 -14.3°
Maximum altitude 17:29:39 29° 73° (ENE) 1,138 4.3 -15.0°
Drops below altitude 10° 17:33:27 10° 134° (SE) 1,965 5.8 -15.7°
Sets 17:35:53 0° 146° (SE) 2,860 6.8 -16.1°
